Change the Weather History Date:

Sunday, December 30, 2012

  Actual Average Record
Temperature  
Mean Temperature 54 °F -  
Max Temperature 64 °F 74 °F 84 °F (1973)
Min Temperature 44 °F 52 °F 31 °F (1961)
Degree Days  
Heating Degree Days 11    
Growing Degree Days 4 (Base 50)    
Moisture  
Dew Point 45 °F    
Average Humidity 69    
Maximum Humidity 83    
Minimum Humidity 58    
Precipitation  
Precipitation 0.00 in - - ()
Sea Level Pressure  
Sea Level Pressure 30.26 in    
Wind  
Wind Speed 9 mph (NNW)    
Max Wind Speed 13 mph    
Max Gust Speed 21 mph    
Visibility 10 miles    
Events      
Averages and records for this station are not official NWS values.
T = Trace of Precipitation, MM = Missing Value Source: NWS Daily Summary

Daily Weather History Graph

Daily Weather History Graph

Search for Another Location

Airport or City:

Trip Planner

Search our weather history database for the weather conditions in past years. The results will help you decide how hot, cold, wet, or windy it might be!

Date:

Astronomy

Dec. 30, 2012 Rise Set
Actual Time 7:11 AM EST 5:37 PM EST
Civil Twilight 6:45 AM EST 6:02 PM EST
Nautical Twilight 6:16 AM EST 6:32 PM EST
Astronomical Twilight 5:48 AM EST 7:00 PM EST
Moon 7:53 PM EST (12/30) 8:31 AM EST (12/30)
Length of Visible Light 11h 17m
Length of Day
10h 25m
Waning Gibbous, 95% of the Moon is Illuminated
Dec 30
Waning Gibbous
Jan 4
Last Quarter
Jan 11
New
Jan 18
First Quarter
Jan 26
Full

Hourly Weather History & Observations

Time (EST) Temp. Windchill Dew Point Humidity Pressure Visibility Wind Dir Wind Speed Gust Speed Precip Events Conditions
12:53 AM 54.0 °F - 46.9 °F 77% 30.13 in 10.0 mi WNW 8.1 mph - N/A   Clear
1:53 AM 53.1 °F - 46.0 °F 77% 30.15 in 10.0 mi NW 11.5 mph - N/A   Clear
2:53 AM 50.0 °F - 45.0 °F 83% 30.17 in 10.0 mi NW 6.9 mph - N/A   Clear
3:53 AM 50.0 °F - 44.1 °F 80% 30.18 in 10.0 mi NW 8.1 mph - N/A   Clear
4:53 AM 48.0 °F - 42.1 °F 80% 30.19 in 10.0 mi NW 11.5 mph - N/A   Clear
5:53 AM 46.0 °F 41.4 °F 39.9 °F 79% 30.22 in 10.0 mi NNW 9.2 mph - N/A   Partly Cloudy
6:37 AM 44.6 °F 39.7 °F 37.4 °F 76% 30.25 in 10.0 mi NW 9.2 mph 19.6 mph N/A   Mostly Cloudy
6:53 AM 45.0 °F 40.1 °F 37.0 °F 74% 30.25 in 10.0 mi NW 9.2 mph - N/A   Mostly Cloudy
7:53 AM 44.1 °F 37.7 °F 36.0 °F 73% 30.28 in 10.0 mi NW 12.7 mph 19.6 mph N/A   Overcast
8:51 AM 46.4 °F 41.1 °F 35.6 °F 66% 30.29 in 10.0 mi NW 11.5 mph - N/A   Scattered Clouds
8:53 AM 46.0 °F 41.0 °F 36.0 °F 68% 30.29 in 10.0 mi NW 10.4 mph - N/A   Scattered Clouds
9:15 AM 46.4 °F 41.5 °F 37.4 °F 71% 30.30 in 10.0 mi NW 10.4 mph - N/A   Mostly Cloudy
9:53 AM 50.0 °F - 39.9 °F 68% 30.31 in 10.0 mi NNW 6.9 mph - N/A   Mostly Cloudy
10:53 AM 54.0 °F - 43.0 °F 66% 30.32 in 10.0 mi NW 9.2 mph 16.1 mph N/A   Overcast
11:53 AM 57.0 °F - 46.9 °F 69% 30.31 in 10.0 mi NW 10.4 mph 16.1 mph N/A   Overcast
12:53 PM 59.0 °F - 48.9 °F 69% 30.28 in 10.0 mi North 9.2 mph - N/A   Overcast
1:53 PM 59.0 °F - 48.9 °F 69% 30.28 in 10.0 mi North 9.2 mph - N/A   Overcast
2:53 PM 60.1 °F - 48.9 °F 67% 30.28 in 10.0 mi North 10.4 mph 19.6 mph N/A   Overcast
3:03 PM 60.8 °F - 50.0 °F 68% 30.28 in 10.0 mi North 8.1 mph 16.1 mph N/A   Overcast
3:53 PM 62.1 °F - 48.9 °F 62% 30.28 in 10.0 mi North 12.7 mph 20.7 mph N/A   Overcast
4:53 PM 62.1 °F - 51.1 °F 67% 30.28 in 10.0 mi North 6.9 mph - N/A   Overcast
5:53 PM 62.1 °F - 51.1 °F 67% 30.29 in 10.0 mi NNE 6.9 mph - N/A   Overcast
6:53 PM 63.0 °F - 50.0 °F 63% 30.29 in 10.0 mi NE 4.6 mph - N/A   Overcast
7:53 PM 64.9 °F - 52.0 °F 63% 30.29 in 10.0 mi ENE 5.8 mph - N/A   Overcast
8:53 PM 64.9 °F - 50.0 °F 58% 30.30 in 10.0 mi ENE 9.2 mph 16.1 mph N/A   Overcast
9:53 PM 64.0 °F - 50.0 °F 60% 30.31 in 10.0 mi East 12.7 mph - N/A   Overcast
10:53 PM 64.0 °F - 51.1 °F 63% 30.31 in 10.0 mi East 5.8 mph - N/A   Mostly Cloudy
11:53 PM 64.9 °F - 51.1 °F 61% 30.31 in 10.0 mi East 8.1 mph - N/A   Overcast